Printer-friendly version

IAU Minor Planet Center

Minor Planet Center

MPEC 2009-U118: 2009 UV87

The following Minor Planet Electronic Circular may be linked-to from your own Web pages, but must not otherwise be redistributed electronically.


Read MPEC 2009-U117 Read MPEC 2009-U119


M.P.E.C. 2009-U118                               Issued 2009 Oct. 27, 20:26 UT

     The Minor Planet Electronic Circulars contain information on unusual
         minor planets and routine data on comets.  They are published
   on behalf of Commission 20 of the International Astronomical Union by the
          Minor Planet Center, Smithsonian Astrophysical Observatory,
                          Cambridge, MA 02138, U.S.A.

             Prepared using the Tamkin Foundation Computer Network

                              MPC@CFA.HARVARD.EDU
          URL http://www.cfa.harvard.edu/iau/mpc.html  ISSN 1523-6714

                                   2009 UV87

Observations:
     K09U87V* C2009 10 27.18486 01 04 11.17 +08 45 11.4          20.0 V EU118G96
     K09U87V  C2009 10 27.19176 01 04 17.54 +08 44 23.7          19.9 V EU118G96
     K09U87V  C2009 10 27.19867 01 04 23.91 +08 43 35.5          20.1 V EU118G96
     K09U87V  C2009 10 27.20545 01 04 30.18 +08 42 48.4          20.2 V EU118G96
     K09U87V  C2009 10 27.23583 01 04 57.70 +08 39 13.5          19.7 R EU118H01
     K09U87V  C2009 10 27.23922 01 05 00.81 +08 38 49.9          19.6 R EU118H01
     K09U87V  C2009 10 27.24206 01 05 03.91 +08 38 33.0          20.2 V EU118G96
     K09U87V  C2009 10 27.24259 01 05 04.45 +08 38 28.7          20.3 V EU118G96
     K09U87V  C2009 10 27.24306 01 05 04.84 +08 38 25.8          19.8 V EU118G96
     K09U87V  C2009 10 27.24319 01 05 04.48 +08 38 22.1          19.7 R EU118H01
     K09U87V  C2009 10 27.24357 01 05 05.31 +08 38 22.1          19.9 V EU118G96
     K09U87V  C2009 10 27.24694 01 05 07.92 +08 37 55.7          19.5 R EU118H01
     K09U87V  C2009 10 27.36293 01 06 55.62 +08 24 20.8          19.7 V EU118G96
     K09U87V  C2009 10 27.36351 01 06 56.16 +08 24 16.6          19.5 V EU118G96
     K09U87V  C2009 10 27.36409 01 06 56.70 +08 24 12.8          19.6 V EU118G96
     K09U87V  C2009 10 27.36456 01 06 57.09 +08 24 09.3          19.4 V EU118G96

Observer details:
G96 Mt. Lemmon Survey.  Observer A. Boattini.  Measurers E. C. Beshore,
    A. Boattini, G. J. Garradd, A. R. Gibbs, A. D. Grauer, R. E. Hill,
    R. A. Kowalski, S. M. Larson, R. H. McNaught.  1.5-m reflector + CCD.
H01 Magdalena Ridge Observatory, Socorro.  Observer W. H. Ryan.  2.4-m f/8.9
    reflector + CCD.

Orbital elements:
2009 UV87                                                Earth MOID = 0.0646 AU
Epoch 2010 Jan. 4.0 TT = JDT 2455200.5                  MPC
M  16.78969              (2000.0)            P               Q
n   0.24504712     Peri.  179.74010     +0.83748846     -0.53706598
a   2.5291212      Node   213.37961     +0.50103131     +0.82835705
e   0.5816928      Incl.   10.56348     +0.21813001     +0.15932586
P   4.02           H   24.9           G   0.15           U   9
Residuals in seconds of arc
091027 G96  0.0   0.3-    091027 G96  0.1-  0.1+    091027 G96  0.2+  0.1-
091027 G96  0.1-  0.0     091027 G96  0.7+  0.5-    091027 G96  0.2+  0.2-
091027 G96  0.2-  0.1-    091027 G96  0.1+  0.1-    091027 G96  0.2+  0.1+
091027 G96  0.0   0.0     091027 H01  0.0   0.4+    091027 G96  0.6-  0.0
091027 H01  0.0   0.2+    091027 G96  0.1+  0.2-
091027 H01  0.2-  0.3+    091027 H01  0.2-  0.2+

Ephemeris:
2009 UV87                a,e,i = 2.53, 0.58, 11                  q = 1.0579
Date    TT    R. A. (2000) Decl.     Delta      r     Elong.  Phase     V
2009 10 26    00 45.14   +11 00.8    0.0672   1.058   161.3    17.6    20.1
2009 10 31    02 04.73   +01 13.4    0.0678   1.059   166.6    12.6    19.9
2009 11 05    03 12.33   -07 04.8    0.0782   1.063   156.0    22.3    20.6
2009 11 10    04 00.55   -12 16.3    0.0955   1.072   147.1    30.1    21.3
2009 11 15    04 32.73   -15 04.7    0.117    1.084   142.1    34.1    21.8
2009 11 20    04 54.05   -16 25.2    0.140    1.099   139.8    35.5    22.3
2009 11 25    05 08.34   -16 52.0    0.166    1.118   139.1    35.3    22.7

Sonia Keys                   (C) Copyright 2009 MPC           M.P.E.C. 2009-U118

Read MPEC 2009-U117 Read MPEC 2009-U119

Valid HTML 4.01!